Location: Northcutt
(34.7304°N, 84.4305°W)
Time: 02:05:48
(UTC+00:00)

A-11 Canister half - Pass Details

Date: 08 October 2022
Orbit: 1524 x 1685 km, 47.3° (Epoch: 01 December)

Event Time Altitude Azimuth Distance (km) Brightness Sun altitude
Rises 04:05:13 0° 294° (WNW) 4,750 12.0 -55.7°
Reaches altitude 10° 04:09:09 10° 280° (W) 3,789 11.3 -56.2°
Enters shadow 04:10:21 13° 274° (W) 3,545 11.1 -56.3°
Maximum altitude 04:15:58 22° 234° (SW) 2,981 - -57.0°
Drops below altitude 10° 04:22:56 10° 188° (S) 3,870 - -57.7°
Sets 04:27:04 0° 174° (S) 4,877 - -58.2°
